157  
ASUS43 KGLD 241908  
RWRGLD  
 
GOODLAND FORECAST AREA HOURLY WEATHER ROUNDUP  
NATIONAL WEATHER SERVICE GOODLAND KS  
1200 PM MST SAT FEB 24 2018  
   
..OFFICIAL OBSERVATIONS
 
 
 
CITY SKY/WX TMP DP RH WIND PRES REMARKS
 
GOODLAND KS SUNNY 40 15 36 NW31G40 29.76F  
HILL CITY KS CLOUDY 32 31 96 W8 29.79F  
IMPERIAL NEB SUNNY 34 14 43 NW25G35 29.75S  
MCCOOK NEB MOSUNNY 33 27 78 W17 29.76F  
AKRON CO SUNNY 35 6 29 NW28G38 29.75F  
BURLINGTON CO SUNNY 38 18 44 NW21G29 29.77S  
LIMON CO SUNNY 35 5 28 NW17G30 29.75F  

 
   
..UNOFFICIAL OBSERVATIONS
 
 
 
CITY SKY/WX TMP DP RH WIND PRES REMARKS
 
COLBY KS SUNNY 41 23 48 NW20G32 29.77F  
NORTON KS CLOUDY 34 27 75 W9 29.76  
SHARON SPRINGS N/A 43 15 31 NW20G28 N/A  
KIT CARSON CO N/A 38 15 40 MISG N/A  

 
 
 
CLICK HERE TO GO TO PREVIOUS BULLETINS.

The Nexlab KS Page
The Nexlab CO Page
The Nexlab NE Page Main Text Page